This demonstration page uses our WeatherBlox Daily Observations layout. Learn more.

Left ArrowRight Arrow

39.12711, -84.51439

Hourly Observations for September 21, 2021

Temp ( °F °C ) Dew Point ( °F °C ) Humidity (%) Winds ( mph kmh ) Pressure ( in mb ) Visibility ( mi km ) Precip ( " mm )
12:53 am 00:53 Mostly Clear 67 19.4 66 18.9 97 97 N N/A 30.04 1017 10 16 N/A
1:53 am 01:53 Clear 66 18.9 65 18.3 96 96 N N/A 30.05 1018 10 16 N/A
2:53 am 02:53 Cloudy 67 19.4 66 18.9 97 97 N N/A 30.06 1018 10 16 N/A
3:53 am 03:53 Cloudy 67 19.4 66 18.9 97 97 N N/A 30.05 1018 10 16 N/A
4:53 am 04:53 Cloudy 68 20 66 18.9 93 93 N N/A 30.05 1018 10 16 N/A
5:53 am 05:53 Cloudy 68 20 66 18.9 93 93 SSW 5 7 30.05 1018 10 16 N/A
6:53 am 06:53 Cloudy 68 20 66 18.9 93 93 S 6 9 30.06 1018 10 16 0.00 0.00
7:53 am 07:53 Cloudy with Mist and Fog 68 20 66 18.9 93 93 S 3 6 30.08 1019 4 6 N/A
8:40 am 08:40 Cloudy with Light Rain 68 20 66 18.9 93 93 S 7 11 30.09 1019 2 3 0.01 0.25
8:53 am 08:53 Cloudy with Light Rain 68 20 66 18.9 93 93 S 7 11 30.09 1019 2 3 0.01 0.25
9:53 am 09:53 Cloudy with Mist and Fog 70 21.1 68 20 93 93 SSE 5 7 30.09 1019 5 8 0.02 0.51
10:30 am 10:30 Cloudy 70 21.1 67 19.4 90 90 S 8 13 30.10 1019 10 16 N/A
10:49 am 10:49 Cloudy with Mist and Fog 70 21 68 20 94 94 S 8 13 30.10 1019 4 6 N/A
10:53 am 10:53 Cloudy with Mist and Fog 70 21.1 68 20 93 93 S 8 13 30.11 1020 4 6 N/A
11:53 am 11:53 Cloudy with Mist and Fog 71 21.7 69 20.6 94 94 S 9 15 30.10 1019 4 6 0.01 0.25
12:53 pm 12:53 Cloudy with Mist and Fog 72 22.2 69 20.6 91 91 S 6 9 30.09 1019 6 10 N/A
1:53 pm 13:53 Cloudy 73 22.8 69 20.6 87 87 SSW 7 11 30.07 1018 7 11 N/A
2:53 pm 14:53 Cloudy 74 23.3 69 20.6 85 85 S 8 13 30.04 1017 10 16 0.00 0.00
3:33 pm 15:33 Cloudy 73 22.8 69 20.6 87 87 SE 10 17 30.02 1017 10 16 N/A
3:42 pm 15:42 Cloudy 74 23.3 69 20.6 85 85 SE 10 17 30.02 1017 10 16 N/A
3:53 pm 15:53 Cloudy 73 22.8 69 20.6 87 87 SSE 7 11 30.02 1017 10 16 N/A
4:53 pm 16:53 Cloudy 74 23.3 69 20.6 85 85 SSE 6 9 30.01 1016 10 16 N/A
5:53 pm 17:53 Cloudy 73 22.8 69 20.6 87 87 S 3 6 30.01 1016 10 16 N/A
6:05 pm 18:05 Cloudy 73 22.8 69 20.6 87 87 N N/A 30.00 1016 10 16 N/A
6:53 pm 18:53 Cloudy 74 23.3 69 20.6 85 85 N N/A 30.00 1016 10 16 N/A
7:50 pm 19:50 Cloudy 72 22 70 21 94 94 N N/A 29.99 1016 10 16 N/A
7:53 pm 19:53 Cloudy 73 22.8 69 20.6 87 87 N N/A 30.00 1016 10 16 N/A
8:53 pm 20:53 Cloudy 72 22.2 69 20.6 91 91 N N/A 30.01 1016 10 16 N/A
9:21 pm 21:21 Cloudy 71 21.7 70 21.1 96 96 N N/A 30.00 1016 10 16 N/A
9:42 pm 21:42 Cloudy 72 22.2 70 21.1 94 94 N N/A 29.99 1016 10 16 N/A
9:53 pm 21:53 Cloudy 72 22.2 69 20.6 91 91 N N/A 30.00 1016 10 16 N/A
10:53 pm 22:53 Cloudy with Light Rain 71 21.7 69 20.6 94 94 N N/A 29.98 1015 10 16 0.00 0.00
11:53 pm 23:53 Cloudy 71 21.7 69 20.6 94 94 N N/A 29.96 1015 10 16 0.00 0.00

Powered by AerisWeather